Sedona, AZ

2:02 AM MST on December 07, 2019 (GMT -0700)
Sedona

Weather History for KSEZ - May, 2019

Change the Weather History Date:

Monday, May 20, 2019

  Actual Average Record
Temperature  
Mean Temperature 46 °F -  
Max Temperature 50 °F 83 °F 91 °F (2012)
Min Temperature 41 °F 50 °F 41 °F (2019)
Degree Days  
Heating Degree Days 20    
Moisture  
Dew Point 36 °F    
Average Humidity 73    
Maximum Humidity 93    
Minimum Humidity 58    
Precipitation  
Precipitation 0.01 in - - ()
Sea Level Pressure  
Sea Level Pressure 29.86 in    
Wind  
Wind Speed 10 mph (NNE)    
Max Wind Speed 21 mph    
Max Gust Speed 30 mph    
Visibility 10 miles    
Events Rain , Thunderstorm    
Averages and records for this station are not official NWS values.
T = Trace of Precipitation, MM = Missing Value Source: NWS Daily Summary

Daily Weather History Graph

Daily Weather History Graph

Search for Another Location

Airport or City:

Astronomy

May. 20, 2019 Rise Set
Actual Time 5:20 AM MST 7:27 PM MST
Civil Twilight 4:52 AM MST 7:55 PM MST
Nautical Twilight 4:17 AM MST 8:30 PM MST
Astronomical Twilight 3:40 AM MST 9:07 PM MST
Moon 9:30 PM MST (5/20) 6:52 AM MST (5/20)
Length of Visible Light 15h 03m
Length of Day
14h 06m
Waning Gibbous, 96% of the Moon is Illuminated
May 20
Waning Gibbous
May 26
Last Quarter
Jun 3
New
Jun 9
First Quarter
Jun 17
Full

Hourly Weather History & Observations

Time (MST) Temp. Windchill Dew Point Humidity Pressure Visibility Wind Dir Wind Speed Gust Speed Precip Events Conditions
5:15 AM 46.4 °F 41.1 °F 35.6 °F 66% 29.73 in 10.0 mi SE 11.5 mph - N/A   Scattered Clouds
5:35 AM 46.4 °F 40.7 °F 35.6 °F 66% 29.73 in 10.0 mi SE 12.7 mph - N/A   Scattered Clouds
12:55 PM 42.8 °F 36.2 °F 41.0 °F 93% 29.79 in 10.0 mi SE 12.7 mph 21.9 mph 0.01 in Rain Light Rain
1:15 PM 42.8 °F 36.2 °F 39.2 °F 87% 29.80 in 10.0 mi SE 12.7 mph - N/A   Scattered Clouds
1:35 PM 44.6 °F 38.8 °F 39.2 °F 81% 29.80 in 10.0 mi SE 11.5 mph - N/A   Mostly Cloudy
1:55 PM 50.0 °F - 41.0 °F 71% 29.80 in 10.0 mi SE 8.1 mph 11.5 mph N/A   Mostly Cloudy
2:15 PM 48.2 °F - 41.0 °F 76% 29.80 in 10.0 mi SE 13.8 mph 20.7 mph N/A   Overcast
2:35 PM 46.4 °F 44.3 °F 37.4 °F 71% 29.81 in 10.0 mi SW 4.6 mph - N/A Rain , Thunderstorm Light Thunderstorms and Rain
2:55 PM 42.8 °F 34.0 °F 33.8 °F 70% 29.83 in 10.0 mi NNW 20.7 mph 28.8 mph N/A Thunderstorm Overcast
3:15 PM 46.4 °F 42.4 °F 35.6 °F 66% 29.84 in 10.0 mi North 8.1 mph - N/A Thunderstorm Thunderstorm
3:35 PM 48.2 °F - 33.8 °F 58% 29.85 in 10.0 mi WNW 15.0 mph 18.4 mph N/A   Mostly Cloudy
3:55 PM 46.4 °F 39.8 °F 35.6 °F 66% 29.84 in 10.0 mi WNW 16.1 mph 25.3 mph N/A   Overcast
4:15 PM 46.4 °F 40.4 °F 33.8 °F 62% 29.85 in 10.0 mi WNW 13.8 mph 19.6 mph N/A   Overcast
4:35 PM 46.4 °F 41.1 °F 33.8 °F 62% 29.85 in 10.0 mi West 11.5 mph 19.6 mph N/A   Mostly Cloudy
4:55 PM 46.4 °F 40.7 °F 33.8 °F 62% 29.86 in 10.0 mi West 12.7 mph - N/A   Mostly Cloudy
5:20 PM 42.8 °F 34.3 °F 37.4 °F 81% 29.88 in 10.0 mi WNW 19.6 mph 29.9 mph N/A Rain Rain
5:35 PM 42.8 °F 37.0 °F 37.4 °F 81% 29.88 in 10.0 mi NW 10.4 mph - N/A Rain Light Rain
5:55 PM 44.6 °F - 35.6 °F 71% 29.87 in 10.0 mi Calm Calm - N/A   Overcast
6:15 PM 44.6 °F - 37.4 °F 76% 29.88 in 10.0 mi Calm Calm - N/A   Mostly Cloudy
6:35 PM 44.6 °F - 37.4 °F 76% 29.88 in 10.0 mi Calm Calm - N/A   Mostly Cloudy
6:55 PM 44.6 °F 42.2 °F 35.6 °F 71% 29.88 in 10.0 mi NNE 4.6 mph - N/A   Overcast
7:15 PM 44.6 °F 40.7 °F 35.6 °F 71% 29.88 in 10.0 mi NE 6.9 mph - N/A   Overcast
7:55 PM 44.6 °F 39.7 °F 35.6 °F 71% 29.88 in 10.0 mi NE 9.2 mph - N/A   Overcast
8:15 PM 42.8 °F 36.2 °F 35.6 °F 76% 29.90 in 10.0 mi NNE 12.7 mph - N/A   Overcast
8:35 PM 42.8 °F 38.0 °F 35.6 °F 76% 29.90 in 10.0 mi NE 8.1 mph - N/A   Mostly Cloudy
8:55 PM 42.8 °F 38.6 °F 35.6 °F 76% 29.90 in 10.0 mi ENE 6.9 mph - N/A   Scattered Clouds
9:15 PM 42.8 °F 41.1 °F 33.8 °F 70% 29.91 in 10.0 mi East 3.5 mph - N/A   Clear
9:35 PM 42.8 °F - 35.6 °F 76% 29.92 in 10.0 mi Calm Calm - N/A   Mostly Cloudy
9:55 PM 42.8 °F - 35.6 °F 76% 29.91 in 10.0 mi Calm Calm - N/A   Scattered Clouds
10:15 PM 41.0 °F 39.0 °F 35.6 °F 81% 29.91 in 10.0 mi NNE 3.5 mph - N/A   Clear
10:35 PM 41.0 °F 39.0 °F 35.6 °F 81% 29.91 in 10.0 mi NNE 3.5 mph - N/A   Clear
10:55 PM 41.0 °F 38.0 °F 33.8 °F 76% 29.91 in 10.0 mi NNE 4.6 mph - N/A   Clear
11:15 PM 41.0 °F 38.0 °F 33.8 °F 76% 29.91 in 10.0 mi NNE 4.6 mph - N/A   Clear
11:35 PM 41.0 °F 39.0 °F 33.8 °F 76% 29.91 in 10.0 mi NE 3.5 mph - N/A   Clear
11:55 PM 41.0 °F 39.0 °F 33.8 °F 76% 29.91 in 10.0 mi NNE 3.5 mph - N/A   Clear